Tracking 25953 objects as of 15-Aug-2022
HD Live streaming from Space Station
objects crossing your sky now

SL-14 R/B

Track SL-14 R/B now!
10-day predictions
SL-14 R/B is classified as:


NORAD ID: 15945
Int'l Code: 1985-069B
Perigee: 609.4 km
Apogee: 636.8 km
Inclination: 82.5 °
Period: 97.0 minutes
Semi major axis: 6994 km
RCS: 5.1348 m2 (large)
Launch date: August 8, 1985
Source: Commonwealth of Independent States (former USSR) (CIS)
Launch site: PLESETSK MISSILE AND SPACE COMPLEX (PKMTR)

Note: This is a ROCKET BODY
aabbcc
Your satellite tracking list
Your tracking list is empty




NASA's NSSDC Master Catalog

Two Line Element Set (TLE):
1 15945U 85069B   22226.82897774  .00000242  00000-0  25907-4 0  9993
2 15945  82.5298 167.7674 0019590 176.7758 183.3588 14.84246886979465
Source of the keplerian elements: AFSPC